TIANGONG 1

Last updated on April 2, 2018, 12:15 a.m. UTC

1 37820U 11053A   18091.67159643  .06702538  93469-5  14209-3 0  9996
2 37820  42.7393 196.1141 0005983 335.0657  25.0237 16.46560555373989

Satellite is not in orbit.